Orbital Elements at Epoch 2459200.5 (2020-Dec-17.0) TDB
Reference: JPL 33 (heliocentric ecliptic J2000)
Element | Value | Uncertainty (1-sigma) | Units |
e | .1382031157048582 | 1.7249e-08 | |
a | 2.267181195138576 | 7.0254e-09 | au |
q | 1.953849690102961 | 4.0397e-08 | au |
i | 4.239760755169026 | 8.2987e-07 | deg |
node | 41.56249648900135 | 8.1972e-06 | deg |
peri | 230.9107055939795 | 9.4864e-06 | deg |
M | 351.0280839534543 | 7.5345e-06 | deg |
tp | 2459231.574952484758 (2021-Jan-17.07495248) | 2.6166e-05 | TDB |
period | 1246.888940609298 3.41 | 5.7957e-06 1.587e-08 | d yr |
n | .2887185765109796 | 1.342e-09 | deg/d |
Q | 2.580512700174191 | 7.9963e-09 | au |
|
| | Orbit Determination Parameters
Additional Information
|